Hourly Data Report for October 25, 2013

All times are specified in Local Standard Time (LST). Add 1 hour to adjust for Daylight Saving Time where and when it is observed.

MONCTON INTL A
NEW BRUNSWICK

46°06'44.000" N
64°40'43.000" W
70.70 m
8103201
71705
YQM

Download Data

Hourly Data (October 2013)
Hourly Data Report for October 25, 2013
Temp Definition
°C
Dew Point Temp Definition
°C
Rel Hum Definition
%
Wind Dir Definition
10's deg

Wind Spd Definition
km/h
Visibility Definition
km
Stn Press Definition
kPa
Hmdx Definition


Wind Chill Definition


Weather Definition


TIME
00:00 Legend Double Dagger 4.9 -2.2 60 23 21 24.1 99.37     LegendNANA
01:00 Legend Double Dagger 4.2 -2.4 62 24 23 24.1 99.43     LegendNANA
02:00 Legend Double Dagger 4.5 -2.2 62 25 26 24.1 99.50     Mostly Cloudy
03:00 Legend Double Dagger 3.9 -1.9 66 24 26 24.1 99.52     LegendNANA
04:00 Legend Double Dagger 2.8 -1.6 73 23 22 24.1 99.59     LegendNANA
05:00 Legend Double Dagger 2.2 -1.4 77 23 20 24.1 99.69     Clear
06:00 Legend Double Dagger 2.1 -1.2 79 23 21 24.1 99.75     LegendNANA
07:00 Legend Double Dagger 2.5 -1.0 78 23 23 24.1 99.83     LegendNANA
08:00 Legend Double Dagger 3.2 -0.6 76 23 26 24.1 99.92     Clear
09:00 Legend Double Dagger 4.7 -0.1 71 25 27 24.1 99.97     LegendNANA
10:00 Legend Double Dagger 6.6 -0.4 61 27 29 24.1 99.99     LegendNANA
11:00 Legend Double Dagger 7.6 0.4 60 26 20 24.1 100.01     Mostly Cloudy
12:00 Legend Double Dagger 8.3 -0.2 55 27 22 24.1 100.00     LegendNANA
13:00 Legend Double Dagger 8.9 -0.1 53 26 29 24.1 99.98     LegendNANA
14:00 Legend Double Dagger 9.2 -0.7 50 29 25 24.1 100.00     Mostly Cloudy
15:00 Legend Double Dagger 8.4 -1.7 49 29 27 24.1 100.06     LegendNANA
16:00 Legend Double Dagger 7.6 -1.9 51 27 21 24.1 100.08     LegendNANA
17:00 Legend Double Dagger 6.2 -1.7 57 26 15 24.1 100.14     Mainly Clear
18:00 Legend Double Dagger 5.1 -1.6 62 25 19 24.1 100.23     LegendNANA
19:00 Legend Double Dagger 3.0 -1.4 73 23 14 24.1 100.28     LegendNANA
20:00 Legend Double Dagger 2.0 -1.4 78 22 13 24.1 100.31     Mainly Clear
21:00 Legend Double Dagger 3.6 -0.2 76 23 13 24.1 100.34     LegendNANA
22:00 Legend Double Dagger 4.2 -0.4 72 25 14 24.1 100.40     LegendNANA
23:00 Legend Double Dagger 3.1 -0.9 75 24 12 24.1 100.40     Mostly Cloudy

Notes on Data Quality.

Legend

  • E = Estimated
  • M = Missing
  • NA = Not Available
  • ‡ = Partner data that is not subject to review by the National Climate Archives
Date modified: